www.pogodaiklimat.ru

Погода и климат >> Архив погоды >> Турция >> Измир аэропорт


ПОГОДА в Измир аэропорту

  • Прогноз погоды в Измир аэропорту
  • Монитор погоды в Измир аэропорту

АРХИВ ПОГОДЫ в Измир аэропорту

Время (UTC), дата Ветер
(напр.,м/с)
 
Видим.   Явления Облачность Т
(С)
Тd
(С)
f
(%)
Тe
(С)
Тes
(С)
Комфортность P
(гПа)
Po
(гПа)
Тmin
(С)
Tmax
(С)
R
(мм)
R24
(мм)
S
(см)
12 15.01 С 12
{17}
6000 м слаб. ливневой дождь {гроза} 9/5 800 м
[Cu med, cong Ac und]
+5.0 +3.3 89 -2 -2 995.7 981.2 18
15 15.01 С 9
{17}
8000 м слаб. ливневой дождь 9/5 750 м
[Cu med, cong Ac und]
+3.7 +0.4 79 -3 -3 1001.4 986.8
18 15.01 С 5
{17}
15 км {ливн. осадки} 5/4 900 м
[Cu hum Ac trans]
+3.7 -1.8 67 -1 -1 1007.5 992.8 +6.8 19
21 15.01 С 9
{13}
15 км 5/4 900 м
[Cu med, cong Ci fib]
+2.8 -1.7 72 -4 -4 1008.7 994.0
00 16.01 С 8
{15}
15 км 3/3 900 м
[Cu hum]
+1.8 -4.2 64 -5 -5 1010.1 995.3
03 16.01 С 10
{17}
15 км 4/4 900 м
[Cu med, cong]
+1.2 -5.3 62 -6 -6 1011.9 997.0
06 16.01 С 10 15 км 3/3 1050 м
[Cu hum]
+0.9 -6.4 58 -6 -6 1014.2 999.3 +0.5
09 16.01 СВ 8
{17}
15 км 3/3 900 м
[Cu hum]
+3.1 -7.0 47 -3 -2 1017.6 1002.7
12 16.01 С 10
{17}
15 км 1/1 1050 м
[Cu hum]
+5.4 -8.6 36 0 0 1017.2 1002.3
15 16.01 СЗ 5
{12}
15 км 1/1 1050 м
[Cu hum]
+4.9 -6.5 43 +1 +1 1018.7 1003.8
18 16.01 СЗ 2
{12}
15 км ясно +2.2 -5.4 57 -1 -1 1020.7 1005.6 +6.2
21 16.01 ЮВ 2
{7}
15 км ясно -1.4 -3.9 83 -5 -5 1022.0 1006.9
00 17.01 ЮВ 1
{7}
15 км 3/3 900 м
[Cu hum]
-1.8 -3.5 88 -4 -4 1022.3 1007.2
03 17.01 Ю 1
{3}
15 км 3/3 900 м
[Cu hum]
-2.7 -3.8 92 -5 -5 1022.2 1007.1
06 17.01 Ю 1
{5}
15 км ясно -2.3 -4.0 88 -5 -4 1023.4 1008.2 -2.8
09 17.01 Ю 2
{6}
15 км ясно +5.7 -1.9 58 +4 +9 1024.3 1009.2
12 17.01 ЮВ 1
{7}
15 км 1/0
[Ci fib]
+11.0 +0.6 49 +11 +16 1022.1 1007.2
15 17.01 ЮВ 2
{4}
15 км 3/0
[Ci fib]
+10.7 +0.2 48 +10 +10 1021.7 1006.8
18 17.01 штиль 0
{7}
15 км ясно +3.6 +1.0 83 +3 +3 1022.4 1007.3 +12.0
21 17.01 штиль 0
{7}
15 км ясно +3.6 +1.0 83 +3 +3 1022.4 1007.3 +12.0
00 18.01 ЮВ 2
{3}
15 км ясно -0.9 -1.7 94 -4 -4 1022.2 1007.3
03 18.01 ЮВ 2
{3}
15 км ясно -1.1 -1.9 94 -4 -4 1021.1 1006.2
06 18.01 Ю 1
{4}
15 км 6/6 900 м
[Cu med, cong]
+2.2 +0.8 90 0 +1 1021.6 1006.6 -1.3
09 18.01 Ю 2
{5}
15 км 6/6 900 м
[Cu med, cong]
+7.8 +2.6 70 +6 +8 1022.2 1007.3
12 18.01 ЮВ 4
{6}
15 км 6/4 900 м
[Cu med, cong Ac trans]
+11.1 +2.4 55 +9 +10 1020.4 1005.5
15 18.01 ЮВ 3
{6}
15 км 8/4 900 м
[Cu med, cong Ac und]
+11.5 +5.4 66 +10 +10 1020.4 1005.5
18 18.01 Ю 4
{6}
15 км 6/4 1200 м
[Cu med, cong Ac und]
+9.8 +6.5 80 +7 +7 1020.8 1006.0 +12.7
21 18.01 ЮВ 2
{8}
15 км 4/4 1200 м
[Cu med, cong]
+7.8 +5.6 86 +6 +6 1021.2 1006.5
00 19.01 ЮВ 2
{8}
15 км 6/6 1050 м
[Sc]
+4.8 +4.2 96 +2 +2 1021.1 1006.4
03 19.01 ЮВ 2
{4}
7000 м слаб. дождь 8/5 750 м
[Sc Ac und]
+6.9 +6.1 95 +5 +5 1020.2 1005.6
06 19.01 ЮВ 2 4000 м слаб. дождь 9/5 750 м
[Sc Ac und]
+7.2 +6.6 96 +5 +5 1021.2 1006.5 +3.5 3
09 19.01 ЮЗ 2
{4}
8000 м слаб. ливневой дождь 9/5 900 м
[Cu med, cong Ac und]
+10.2 +8.5 89 +9 +10 1022.0 1007.3
12 19.01 Ю 3
{6}
15 км {ливн. осадки} 8/4 900 м
[Cu med, cong Ac und]
+13.6 +8.1 69 +13 +14 1020.2 1005.6 1
15 19.01 Ю 2
{6}
15 км 8/4 900 м
[Cu med, cong Ac und]
+12.3 +8.4 77 +12 +12 1020.0 1005.4
18 19.01 ЮВ 1
{6}
15 км 8/4 900 м
[Cu med, cong Ac und]
+10.1 +7.6 84 +10 +10 1020.7 1006.0 +14.8 1
21 19.01 Ю 2
{5}
15 км 8/4 900 м
[Cu med, cong Ac und]
+8.4 +7.0 91 +7 +7 1021.1 1006.5
00 20.01 Ю 1
{5}
15 км 8/4 1200 м
[Cu med, cong Ci fib]
+6.5 +5.7 95 +6 +6 1020.4 1005.8
03 20.01 Ю 1 15 км слаб. ливневой дождь 9/5 900 м
[Cu med, cong Ac und]
+7.8 +6.8 93 +8 +8 1020.4 1005.8
06 20.01 штиль 0 8000 м дымка {ливн. осадки} 6/4 900 м
[Cu med, cong Ac trans]
+7.0 +6.6 97 +6 +6 1020.2 1005.5 +5.8 1
09 20.01 Ю 3
{5}
15 км 8/4 900 м
[Cu med, cong Ac trans]
+11.2 +8.4 83 +9 +11 1020.6 1006.0
12 20.01 ЮВ 4
{9}
15 км 9/5 900 м
[Cu med, cong Ac trans]
+12.7 +7.9 73 +11 +12 1018.6 1004.0
15 20.01 ЮВ 4
{7}
15 км 8/5 900 м
[Cu med, cong Ac und]
+13.2 +8.4 73 +12 +12 1017.6 1003.1
18 20.01 В 2
{7}
15 км слаб. ливневой дождь {гроза} 9/5 900 м
[Cu med, cong Ac und]
+9.2 +8.3 94 +8 +8 1018.5 1003.8 +14.4 4
21 20.01 Ю 3
{5}
8000 м слаб. ливневой дождь 9/5 900 м
[Cu med, cong Ac und]
+9.4 +7.3 87 +7 +7 1018.6 1004.0
00 21.01 ЮЗ 1
{5}
6000 м слаб. ливневой дождь 9/5 120 м
[Cu med, cong Ac und]
+8.4 +7.8 96 +7 +7 1017.5 1003.0 2
03 21.01 ЮЗ 1
{3}
4500 м слаб. ливневой дождь 9/5 900 м
[Cu med, cong Ac und]
+7.9 +7.5 97 +7 +7 1016.0 1001.5
06 21.01 З 2 4500 м слаб. ливневой дождь 9/5 900 м
[Cu med, cong Ac und]
+8.0 +7.4 96 +6 +6 1015.9 1001.3 +7.8 5
09 21.01 штиль 0
{4}
15 км {ливн. осадки} 8/5 800 м
[Cu med, cong Ac und]
+9.4 +8.1 92 +9 +11 1016.8 1002.2
12 21.01 ЮЗ 1
{5}
15 км {ливн. осадки} 8/6 450 м
[Cu med, cong Ac trans]
+12.6 +9.0 79 +13 +15 1015.5 1001.0 0.0
15 21.01 СЗ 1
{5}
8000 м дымка 8/5 900 м
[Cu med, cong Ac und]
+10.9 +8.3 84 +11 +11 1016.3 1001.7
18 21.01 штиль 0
{5}
7000 м дымка 6/6 1200 м
[Sc]
+9.8 +8.7 93 +9 +9 1017.4 1002.8 +12.6 0.0
21 21.01 штиль 0
{3}
7000 м дымка 6/6 1200 м
[Sc]
+9.1 +8.3 95 +8 +8 1017.9 1003.3
00 22.01 штиль 0
{3}
4500 м дымка 6/6 1200 м
[Sc]
+8.5 +8.1 97 +8 +8 1017.8 1003.3
03 22.01 С 2
{3}
4500 м дымка 6/6 1050 м
[Sc]
+7.4 +6.8 96 +6 +6 1017.4 1002.8
06 22.01 штиль 0
{3}
3500 м дымка 9/9 900 м
[Sc]
+7.2 +6.8 97 +6 +6 1017.6 1003.0 +6.6
09 22.01 Ю 2
{4}
7000 м дымка 8/3 900 м
[Cu hum Ci fib]
+11.6 +8.0 79 +11 +14 1018.1 1003.6

 

Местоположение метеостанции Измир аэропорт (Турция): широта 38.27 долгота 27.15 высота над уровнем моря 120 м.

В архиве по умолчанию представлена погода в Измир аэропорту за последнюю неделю. Архивные данные за месяц целиком и за предыдущие месяцы, начиная с января 2011 года, Вы можете получить, выбрав интересующий диапазон дат из раскрывающегося списка и нажав кнопку "Ввод!".


*Определитесь, кто Вы:
робот инопланетянин человек

Внимание! Время в таблицах - всемирное. Для получения местного времени необходимо прибавить поправку, которая равна 2 ч.

Смотрите также архив погоды в соседних городах и на ближайших метеорологических станциях:

Погода в Измире (Турция) (18 км)
Погода в Измир / Сигли (Турция) (28 км)
Погода в Кушадасы (Турция) (45 км)
Погода в Манисе (Турция) (46 км)
Погода на Самосе (Греция) (67 км)
Погода в Чешме (Турция) (74 км)
Погода в Айдыне (Турция) (77 км)
Погода на Хиосе (Греция) (89 км)
Погода в Дикили (Турция) (90 км)
Погода в Акхисаре (Турция) (94 км)

Пояснения к столбцам:

Ветер - указаны скорость ветра в м/с - средняя за 10 мин, порывы в срок и между сроками (в фигурных скобках) и направление, откуда дует ветер: С - северный, СВ - северо-восточный, В - восточный, ЮВ - юго-восточный, Ю - южный, ЮЗ - юго-западный, З - западный, СЗ - северо-западный.
Видимость - горизонтальная дальность видимости в метрах или километрах. При видимости от 1 до 10 км при отсутствии осадков обычно наблюдается дымка, при ухудшении видимости до 1 км и менее - туман. В сухую погоду видимость может ухудшаться дымом, пылью или мглою.
Явления - указаны атмосферные явления, наблюдавшиеся в срок или в последний час перед сроком; фигурными скобками обозначены явления, наблюдавшиеся между сроками (за 1-3 часа до срока); квадратными скобками обозначены град или гололедные отложения с указанием их диаметра в мм.
Облачность - указаны через наклонную черту общая и нижняя облачность в баллах и высота нижней границы облаков в метрах; квадратными скобками обозначены формы облаков: Ci - перистые, Cs - перисто-слоистые, Cc - перисто-кучевые, Ac - высококучевые, As - высокослоистые, Sc - слоисто-кучевые, Ns - слоисто-дождевые, Cu - кучевые, Cb - кучево-дождевые. Подробнее классификацию облаков см. в Атласе облаков (PDF).
T - Температура воздуха - температура, измеренная на высоте 2 м над землей.
Td - Температура точки росы - температура, при понижении до которой содержащийся в воздухе водяной пар достигнет насыщения.
f - Относительная влажность воздуха - влажноcть воздуха, измеренная на высоте 2 м над землей.
Te - Эффективная температура - температура, которую ощущает одетый по сезону человек в тени. Характеристика душности погоды. При расчете учитывается влияние влажности воздуха и скорости ветра на теплоощущения человека.
Tes - Эффективная температура на солнце - температура, которую ощущает человек, с поправкой на солнечный нагрев. Характеристика знойности погоды. Зависит от высоты солнца над горизонтом, облачности и скорости ветра. Ночью, в пасмурную погоду, а также при ветре 12 м/с и более поправка равна нулю.
P - Атмосферное давление - приведенное к уровню моря атмосферное давление.
Po - Атмосферное давление - измеренное на уровне метеостанции атмосферное давление.
Tmin - Минимальная температура - минимум температуры воздуха на высоте 2 м над землей.
Tmax - Максимальная температура - максимум температуры воздуха на высоте 2 м над землей.
R - Количество осадков - Количество выпавших осадков за период времени, мм. При наведении курсора мыши на число - период времени, за который выпало указанное количество осадков.
R24 - Количество осадков - Количество выпавших осадков за 24 часа, мм.
S - Снежный покров - Высота снежного покрова, см. При наведении курсора мыши на число - состояние снежного покрова и степень покрытия местности в баллах.